Location: Friedrichshafen
(47.6598°N, 9.4819°E)
Time: 01:29:11
(UTC+02:00)

Tiangong 2 - Visible Passes

Search period start: 25 May 2018 00:00
Search period end: 04 June 2018 00:00
Orbit: 382 x 385 km, 42.8° (Epoch: 24 May)

Date Brightness Start Highest point End Pass type
(mag) Time Alt. Az. Time Alt. Az. Time Alt. Az.
25 May 1.9 22:11:16 10° WSW 22:14:07 31° S 22:16:23 14° ESE visible
25 May 3.3 23:47:40 10° WSW 23:48:34 16° WSW 23:48:34 16° WSW visible
26 May 1.9 22:47:54 10° WSW 22:50:46 32° S 22:51:30 28° SSE visible
27 May 1.9 21:48:11 10° WSW 21:51:04 33° S 21:53:58 10° ESE visible
27 May 2.8 23:24:48 10° WSW 23:26:32 20° SW 23:26:32 20° SW visible
28 May 2.2 22:24:56 10° WSW 22:27:43 28° S 22:29:18 18° SE visible
29 May 2.9 23:02:03 10° WSW 23:04:13 17° SSW 23:04:13 17° SSW visible
30 May 2.6 22:02:01 10° WSW 22:04:37 23° SSW 22:06:57 11° SE visible
31 May 3.4 22:39:40 10° SW 22:41:03 12° SSW 22:41:52 11° S visible
